Regional Weather Roundup
Issued by NWS New Orleans/Baton Rouge, LA

Home | Current Version | Previous Version | Text Only | Print | Product List | Glossary On
Versions: 1 2 3 4 5 6 7 8 9 10 11 12 13 14 15 16 17 18 19 20 21 22 23 24 25 26 27 28 29 30 31 32 33 34 35 36 37 38 39 40 41 42 43 44 45 46 47 48 49 50
000
ASUS44 KLIX 292310
RWRLIX
NEW ORLEANS REGIONAL WEATHER ROUNDUP
NATIONAL WEATHER SERVICE NEW ORLEANS LA
600 PM CDT TUE JUL 29 2014

NOTE: "FAIR" INDICATES FEW OR NO CLOUDS BELOW 12,000 FEET WITH NO
      SIGNIFICANT WEATHER AND/OR OBSTRUCTIONS TO VISIBILITY.
      SKY/WX - SKY CONDITION AND SIGNIFICANT WEATHER.
      TMP - AIR TEMPERATURE.     DP    - DEWPOINT TEMPERATURE.
      RH  - RELATIVE HUMIDITY.   PRES  - PRESSURE.
      HI  - HEAT INDEX.          WCI   - WIND CHILL INDEX.

*  THESE STATIONS ARE NOT NWS OR FAA STATIONS AND ARE NOT UNDER
   NWS QUALITY CONTROL.

LAZ038-040-048-061>063-065>067-069-300000-
SOUTHEAST LOUISIANA

CITY           SKY/WX    TMP DP  RH WIND       PRES   REMARKS
N.O. AUDUBON     N/A     91  66  44 MISG        N/A
N.O. INTL ARPT PTSUNNY   88  65  46 N6        30.01F
N.O. LAKEFRONT SUNNY     86  68  54 W9        30.01F
N.O. DOWNTOWN*   N/A     88  63  42 N9        30.02S
SLIDELL        SUNNY     88  63  43 NW7       30.00F
BATON ROUGE    SUNNY     89  63  41 N3        30.02F
BOOTHVILLE     MOSUNNY   84  66  54 VRB3      30.02S
BELLE CHASSE   MOSUNNY   87  61  41 VRB7      30.00F
BOGALUSA*        N/A     89  61  39 N6        30.02F
GALLIANO*      NOT AVBL
NEW ROADS*       N/A     86  65  49 NW8       30.03F
GONZALES*        N/A     87  67  50 N5        30.01F
HAMMOND*       SUNNY     90  59  35 NW6       30.03F
HOUMA*         NOT AVBL
PORT FOURCHON* MOCLDY    88  70  55 CALM      30.02S

$$

MSZ070-080>082-300000-
SOUTHERN MISSISSIPPI

CITY           SKY/WX    TMP DP  RH WIND       PRES   REMARKS
MCCOMB         PTSUNNY   87  63  44 NW10      30.03F
GULFPORT       PTSUNNY   92  62  36 N8        29.98F
BILOXI         PTSUNNY   87  63  45 VRB3      29.99F
PASCAGOULA     SUNNY     88  65  46 VRB5      29.98F
STENNIS ARPT*  MOSUNNY  N/A N/A N/A NW3       30.00F

$$

COASTAL OBSERVATIONS
LAKE AND NEARSHORE STATIONS

STATION/POSITION TIME  TEMP    WIND        PRES    WAVE
                       AIR SEA DIR/SP/G            HT/PER
                 (UTC) (F)     (DEG/KT/KT) (MB)    (FT/S)
PASCAGOULA       2300   88     330/  9/ 12 1014.9
WAVELAND YACHT   2300   86     360/  7/ 10 1015.1
GRAND ISLE       2300   85 87   40/  4/  6 1016.9
SOUTHWEST PASS   2300   92 85   20/  8/ 10 1016.6
NEW CANAL        2300   87 85  300/  2/  5 1016.8
SHELL BEACH      2300   84 83  300/  8/ 10 1015.9

OFFSHORE STATIONS

STATION/POSITION TIME  TEMP    WIND        PRES    WAVE
                       AIR SEA DIR/SP/G            HT/PER
                 (UTC) (F)     (DEG/KT/KT) (MB)    (FT/S)
64 S DAUPHIN ISL 2156   83 87  340/ 12/ 14 1015.7

$$



USA.gov is the U.S. government's official web portal to all federal, state and local government web resources and services.